[[[{"header":{"parameterUnit":"kt","parameterCategory":2,"dx":1,"dy":1,"la1":30.253999710083008,"la2":30.299108505249023,"lo1":-89.0895004272461,"lo2":-89.04439544677734,"nx":28,"ny":28,"refTime":"2022-10-02T21:00:00:Z","depth":0,"parameterNumber":1,"parameterNumberName":"U-component_of_WINDS"},"data":[2.0797,2.0814,2.0827,2.0854,2.087,2.089,2.0902,2.0919,2.0935,2.0963,2.0981,2.0996,2.1019,2.1045,2.1066,2.1072,2.108,2.1078,2.1086,2.1083,2.1083,2.1084,2.108,2.108,2.108,2.1086,2.1086,2.1086,2.0799,2.0815,2.0832,2.0857,2.0873,2.0883,2.0905,2.0917,2.0935,2.0955,2.0973,2.0998,2.102,2.1043,2.1066,2.1076,2.1082,2.1082,2.108,2.1084,2.1082,2.1077,2.1077,2.1077,2.1077,2.1077,2.1077,2.1077,2.0806,2.0815,2.0837,2.0856,2.0872,2.0889,2.09,2.0918,2.0935,2.0959,2.0971,2.0992,2.1015,2.1048,2.1062,2.108,2.1083,2.1086,2.1086,2.1087,2.1086,2.1076,2.1085,2.1085,2.1085,2.1085,2.1085,0,2.0814,2.0824,2.084,2.086,2.0874,2.0891,2.0909,2.0917,2.0941,2.0954,2.0974,2.0988,2.1016,2.1037,2.1061,2.1075,2.1085,2.1088,2.109,2.1084,2.1077,2.1081,2.1077,2.1087,2.1087,2.1087,2.1087,2.1087,2.0821,2.083,2.0858,2.0868,2.088,2.0895,2.0907,2.0928,2.0939,2.0964,2.0972,2.0993,2.101,2.1041,2.1061,2.1081,2.1086,2.1089,2.1089,2.1085,2.1086,2.1085,2.1086,2.1088,2.1087,2.1087,2.1087,0,2.0824,2.0842,2.086,2.0886,2.0893,2.0902,2.0925,2.0935,2.095,2.0966,2.0971,2.0995,2.1014,2.1033,2.1058,2.1068,2.1086,2.109,2.1079,2.108,2.1085,2.1084,2.1094,2.1097,2.1098,2.1098,2.1098,0,2.0836,2.0847,2.0874,2.0883,2.0896,2.0915,2.0928,2.0942,2.0959,2.0972,2.0987,2.0999,2.1021,2.1037,2.105,2.1068,2.1073,2.1081,2.1084,2.1078,2.1077,2.1083,2.1083,2.1091,2.1091,2.109,2.109,0,2.0838,2.0864,2.0879,2.0887,2.0915,2.0922,2.0934,2.0953,2.0964,2.0982,2.0989,2.1008,2.1018,2.1034,2.105,2.105,2.1072,2.1075,2.108,2.108,2.1082,2.1081,2.1088,2.109,2.109,2.109,2.109,0,2.0849,2.0865,2.0883,2.0907,2.0913,2.0922,2.0942,2.0954,2.0973,2.0982,2.0996,2.1006,2.1022,2.1024,2.1047,2.1042,2.1052,2.1061,2.1061,2.1062,2.1063,2.1063,2.1068,2.1069,2.1066,2.1066,2.1066,0,2.0846,2.0868,2.0883,2.09,2.0913,2.0928,2.0939,2.0955,2.0967,2.098,2.0994,2.1008,2.1013,2.102,2.1029,2.1044,2.1051,2.1043,2.1063,2.1064,2.1057,2.1063,2.1058,2.1066,2.1064,2.1064,2.1064,0,2.0845,2.0876,2.0878,2.0888,2.091,2.092,2.0933,2.0951,2.0959,2.0974,2.0985,2.1006,2.1011,2.1021,2.1031,2.1039,2.1047,2.1043,2.1043,2.1043,2.1064,2.106,2.1061,2.1052,2.1052,2.1053,2.1062,0,2.0859,2.0871,2.0876,2.0897,2.0907,2.0917,2.0934,2.0943,2.0952,2.0963,2.098,2.0996,2.1013,2.1018,2.1026,2.1039,2.1039,2.1043,2.1044,2.1047,2.1051,2.1053,2.1037,2.1038,2.1038,2.1038,0,0,2.0851,2.0868,2.0882,2.0893,2.0902,2.0915,2.0925,2.0936,2.0956,2.0963,2.0964,2.0994,2.1006,2.1024,2.1027,2.1033,2.1037,2.1034,2.1046,2.1046,2.1047,2.1051,2.1052,2.1038,2.1038,2.1038,2.1038,0,2.0858,2.0869,2.0878,2.089,2.0907,2.0918,2.092,2.0939,2.0946,2.0961,2.0971,2.0983,2.1004,2.1016,2.1025,2.1033,2.1039,2.1038,2.1037,2.1046,2.1047,2.1047,2.1051,2.1052,2.1038,2.1038,2.1038,0,2.086,2.0873,2.0878,2.0899,2.0909,2.0921,2.0927,2.0938,2.0947,2.0959,2.0973,2.0983,2.1,2.1014,2.1021,2.1022,2.104,2.1036,2.1036,2.1036,2.1047,2.1047,2.1048,2.1039,2.1039,2.1038,0,0,2.0864,2.0874,2.0893,2.0901,2.0907,2.0923,2.093,2.0938,2.0952,2.0957,2.0969,2.0983,2.0996,2.1004,2.1017,2.103,2.1035,2.1036,2.1036,2.1036,2.1036,2.1046,2.1047,2.1038,2.1038,2.1038,0,0,2.0865,2.0887,2.0892,2.0903,2.0916,2.0935,2.094,2.0946,2.0959,2.0959,2.0973,2.0977,2.099,2.0999,2.0994,2.1017,2.1018,2.102,2.101,2.101,2.101,2.1007,2.1001,0,0,0,0,0,2.0879,2.0885,2.0889,2.0893,2.0917,2.0933,2.0936,2.0947,2.0948,2.0952,2.0964,2.0969,2.1,2.0996,2.1,2.1004,2.1035,2.1036,2.1036,2.1028,2.1028,2.1028,0,0,0,0,0,0,2.0881,2.0886,2.0889,2.0907,2.0913,2.0933,2.0937,2.094,2.0948,2.0949,2.0966,2.0969,2.0979,2.0995,2.0998,2.1002,2.1,2.1035,2.1036,2.1036,2.1028,2.1028,2.1028,0,0,0,0,0,2.0883,2.0886,2.0922,2.0907,2.0912,2.0929,2.0936,2.0939,2.0946,2.0962,2.0965,2.0953,2.0979,2.0982,2.0997,2.1,2.0997,2.0999,2.1036,2.1036,2.1036,2.1028,0,0,0,0,0,0,2.0884,2.0889,2.0923,2.0925,2.0906,2.0928,2.0931,2.0939,2.0959,2.0962,2.095,2.095,2.0979,2.0982,2.0984,2.0999,2.0995,2.0997,2.0998,2.1036,2.1036,2.1036,0,0,0,0,0,0,2.0887,2.0891,2.0924,2.0921,2.0923,2.0927,2.093,2.0943,2.0959,2.0945,2.0946,2.095,2.0975,2.0981,2.0983,2.1003,2.0994,2.0995,2.0996,2.0997,2.1036,2.1036,0,0,0,0,0,0,2.0889,2.0892,2.0921,2.0922,2.0923,2.0946,2.0939,2.0963,2.0956,2.0944,2.0956,2.0956,2.0974,2.0976,2.0982,2.1002,2.1003,2.0994,2.0995,2.0995,2.0996,0,0,0,0,0,0,0,2.089,2.0867,2.0912,2.0923,2.0924,2.0943,2.0943,2.0944,2.0956,2.0956,2.0956,2.0956,2.0987,2.0988,2.099,2.1,0,0,2.0994,2.0995,0,0,0,0,0,0,0,0,2.0866,2.0867,2.0912,2.0912,2.0912,2.0943,2.0943,2.0944,2.0956,2.0956,2.0956,2.0956,2.0988,2.0989,2.099,0,0,0,0,0,0,0,0,0,0,0,0,0,0,0,2.0912,2.0912,0,2.0943,2.0943,2.0944,2.0956,2.0956,2.0956,2.0956,2.0988,2.0989,2.099,0,0,0,0,0,0,0,0,0,0,0,0,0,0,0,0,0,0,0,0,0,0,0,0,0,0,0,0,0,0,0,0,0,0,0,0,0,0,0,0,0,0,0,0,0,0,0,0,0,0,0,0,0,0,0,0,0,0,0,0,0,0,0,0,0,0,0,0,0]}],[{"header":{"parameterUnit":"kt","parameterCategory":2,"dx":1,"dy":1,"la1":30.253999710083008,"la2":30.299108505249023,"lo1":-89.0895004272461,"lo2":-89.04439544677734,"nx":28,"ny":28,"refTime":"2022-10-02T21:00:00:Z","depth":0,"parameterNumber":2,"parameterNumberName":"V-component_of_WINDS"},"data":[-10.1788,-10.198,-10.1995,-10.2218,-10.2268,-10.2421,-10.2479,-10.2554,-10.2616,-10.2796,-10.29,-10.2928,-10.2989,-10.3112,-10.3221,-10.3229,-10.3273,-10.3335,-10.3333,-10.3055,-10.3017,-10.298,-10.2937,-10.3345,-10.3346,-10.3617,-10.362,-10.3622,-10.1589,-10.1642,-10.1765,-10.1892,-10.1996,-10.1947,-10.2041,-10.2129,-10.2265,-10.2342,-10.2444,-10.2601,-10.2723,-10.2762,-10.288,-10.2964,-10.2944,-10.2995,-10.2987,-10.2996,-10.2701,-10.2655,-10.301,-10.301,-10.301,-10.301,-10.301,-10.301,-10.123,-10.1345,-10.1429,-10.1561,-10.1628,-10.1711,-10.182,-10.1853,-10.1968,-10.2096,-10.2084,-10.2234,-10.2308,-10.2451,-10.25,-10.2614,-10.2557,-10.2614,-10.2627,-10.2641,-10.2656,-10.2262,-10.2634,-10.2633,-10.2632,-10.2631,-10.2631,0,-10.097,-10.0974,-10.109,-10.1213,-10.1308,-10.1401,-10.1487,-10.1554,-10.1556,-10.165,-10.1786,-10.1865,-10.2018,-10.2143,-10.2253,-10.229,-10.2238,-10.2234,-10.2273,-10.2281,-10.2276,-10.2279,-10.1796,-10.2222,-10.2218,-10.2216,-10.2214,-10.2212,-10.0607,-10.0738,-10.083,-10.091,-10.096,-10.1088,-10.1165,-10.1157,-10.1238,-10.1339,-10.1436,-10.1563,-10.1663,-10.1873,-10.1899,-10.2012,-10.1986,-10.2149,-10.2002,-10.2007,-10.1986,-10.1978,-10.199,-10.2175,-10.218,-10.2184,-10.2187,0,-10.0401,-10.0418,-10.0623,-10.0698,-10.0721,-10.0857,-10.0918,-10.1028,-10.1044,-10.1197,-10.1232,-10.1255,-10.1385,-10.1385,-10.1531,-10.1526,-10.1745,-10.1719,-10.1721,-10.1714,-10.1858,-10.1844,-10.2327,-10.2389,-10.1969,-10.1973,-10.1976,0,-10.0095,-10.0266,-10.0281,-10.0399,-10.0588,-10.0574,-10.076,-10.0792,-10.0856,-10.0975,-10.0921,-10.1033,-10.1015,-10.1128,-10.1121,-10.1299,-10.1326,-10.1332,-10.1327,-10.1336,-10.1335,-10.1372,-10.1351,-10.1314,-10.1311,-10.1309,-10.1307,0,-9.9768,-9.9975,-10.0168,-10.0216,-10.0309,-10.0399,-10.044,-10.051,-10.0583,-10.0678,-10.0725,-10.0835,-10.0895,-10.098,-10.097,-10.0871,-10.1188,-10.1049,-10.1193,-10.1194,-10.1259,-10.1255,-10.1687,-10.1304,-10.1303,-10.1302,-10.1302,0,-9.9521,-9.9624,-9.99,-9.9976,-10.0029,-10.0154,-10.0264,-10.0371,-10.0447,-10.0452,-10.0525,-10.0486,-10.0642,-10.0505,-10.0719,-10.0593,-10.0654,-10.0673,-10.0684,-10.0694,-10.0539,-10.078,-10.1194,-10.1236,-10.0709,-10.0704,-10.07,0,-9.9143,-9.9425,-9.9415,-9.9675,-9.9805,-9.9735,-9.9873,-9.9942,-9.996,-10.0068,-10.0085,-10.0208,-10.0105,-10.0142,-10.0249,-10.0269,-10.0434,-10.0248,-10.0398,-10.0404,-10.038,-10.0762,-10.0822,-10.1105,-10.0637,-10.0643,-10.0648,0,-9.885,-9.8963,-9.901,-9.9064,-9.9155,-9.9261,-9.9419,-9.9539,-9.9613,-9.9694,-9.9824,-9.9995,-9.9925,-9.9986,-9.9963,-10.0074,-10.0322,-9.9981,-9.9982,-10.0042,-10.0605,-10.0662,-10.071,-10.0282,-10.0289,-10.0296,-10.0598,0,-9.8472,-9.8614,-9.8742,-9.8861,-9.8944,-9.9106,-9.9108,-9.9193,-9.9165,-9.9179,-9.9368,-9.9419,-9.9535,-9.9588,-9.9559,-9.9814,-9.9769,-9.9691,-9.9553,-9.9804,-9.9903,-9.9944,-9.9406,-9.9401,-9.9398,-9.9395,0,0,-9.8104,-9.8306,-9.8287,-9.844,-9.8508,-9.843,-9.8603,-9.8658,-9.8771,-9.8819,-9.8743,-9.8991,-9.9034,-9.9263,-9.9342,-9.9388,-9.9432,-9.9343,-9.9685,-9.9717,-9.9747,-9.9854,-9.9896,-9.9389,-9.9388,-9.9387,-9.9386,0,-9.7966,-9.8021,-9.8193,-9.8252,-9.8337,-9.8343,-9.8385,-9.8453,-9.8468,-9.8654,-9.8582,-9.8694,-9.889,-9.8946,-9.9,-9.9318,-9.9253,-9.9353,-9.9525,-9.9651,-9.9688,-9.972,-9.9832,-9.9873,-9.9377,-9.9378,-9.9378,0,-9.7676,-9.773,-9.7813,-9.7965,-9.8018,-9.8151,-9.8009,-9.8154,-9.8251,-9.815,-9.8334,-9.8361,-9.8434,-9.865,-9.8747,-9.8679,-9.909,-9.8959,-9.898,-9.8989,-9.911,-9.9155,-9.9194,-9.8673,-9.867,-9.8668,0,0,-9.7555,-9.7686,-9.7736,-9.7935,-9.7974,-9.7984,-9.8053,-9.8031,-9.8102,-9.813,-9.8162,-9.823,-9.8343,-9.8418,-9.8524,-9.8762,-9.8774,-9.8872,-9.8905,-9.8933,-9.8957,-9.9085,-9.9129,-9.8659,-9.8659,-9.8658,0,0,-9.7495,-9.7563,-9.7523,-9.7754,-9.7827,-9.7884,-9.8004,-9.7954,-9.805,-9.803,-9.7994,-9.801,-9.8212,-9.8239,-9.8118,-9.8474,-9.8338,-9.8367,-9.8448,-9.849,-9.8523,-9.851,-9.7974,0,0,0,0,0,-9.7353,-9.7555,-9.7519,-9.7557,-9.7744,-9.7906,-9.7929,-9.7907,-9.7813,-9.7909,-9.7928,-9.7854,-9.8167,-9.8059,-9.8095,-9.8229,-9.8541,-9.8562,-9.8581,-9.8743,-9.8786,-9.8823,0,0,0,0,0,0,-9.7368,-9.7416,-9.7513,-9.758,-9.7622,-9.7898,-9.7734,-9.7733,-9.7802,-9.7786,-9.7853,-9.7856,-9.7837,-9.8038,-9.8072,-9.8199,-9.7963,-9.8549,-9.8567,-9.8583,-9.8758,-9.8793,-9.8824,0,0,0,0,0,-9.738,-9.7418,-9.7725,-9.7577,-9.7613,-9.7633,-9.7726,-9.7724,-9.7776,-9.7805,-9.7806,-9.7754,-9.7841,-9.7867,-9.8058,-9.8185,-9.794,-9.7952,-9.8561,-9.8575,-9.8587,-9.8775,0,0,0,0,0,0,-9.7389,-9.7416,-9.7731,-9.7742,-9.7499,-9.7616,-9.7634,-9.7717,-9.779,-9.7793,-9.7702,-9.7689,-9.7847,-9.7866,-9.7886,-9.8182,-9.7921,-9.7934,-9.7941,-9.8571,-9.8582,-9.8592,0,0,0,0,0,0,-9.7395,-9.7425,-9.7737,-9.7639,-9.7638,-9.7602,-9.7618,-9.7775,-9.7791,-9.7683,-9.7674,-9.7695,-9.7814,-9.7866,-9.7881,-9.8127,-9.7906,-9.7918,-9.7927,-9.7932,-9.858,-9.8589,0,0,0,0,0,0,-9.7407,-9.7433,-9.7636,-9.7636,-9.7634,-9.7744,-9.7739,-9.793,-9.7714,-9.768,-9.7693,-9.7684,-9.7816,-9.7831,-9.7879,-9.8119,-9.8125,-9.7907,-9.7915,-9.7921,-9.7925,0,0,0,0,0,0,0,-9.7417,-9.7251,-9.7673,-9.7632,-9.763,-9.7834,-9.7837,-9.784,-9.7712,-9.7703,-9.7695,-9.7688,-9.7837,-9.785,-9.7864,-9.8112,0,0,-9.7906,-9.7911,0,0,0,0,0,0,0,0,-9.724,-9.7249,-9.7673,-9.7675,-9.7677,-9.7835,-9.7837,-9.7839,-9.771,-9.7704,-9.7697,-9.7691,-9.7841,-9.7851,-9.7862,0,0,0,0,0,0,0,0,0,0,0,0,0,0,0,-9.7673,-9.7675,0,-9.7835,-9.7837,-9.7839,-9.7709,-9.7704,-9.7698,-9.7693,-9.7844,-9.7853,-9.7862,0,0,0,0,0,0,0,0,0,0,0,0,0,0,0,0,0,0,0,0,0,0,0,0,0,0,0,0,0,0,0,0,0,0,0,0,0,0,0,0,0,0,0,0,0,0,0,0,0,0,0,0,0,0,0,0,0,0,0,0,0,0,0,0,0,0,0,0,0]}]]]